Weather History for KLAR - May, 2012

Change the Weather History Date:

Monday, May 28, 2012

  Actual Average Record
Temperature  
Mean Temperature 49 °F 51 °F  
Max Temperature 62 °F 66 °F 81 °F (2010)
Min Temperature 36 °F 37 °F 25 °F (1954)
Degree Days  
Heating Degree Days 16 14  
Month to date heating degree days 432 501  
Since 1 July heating degree days 8032 8550  
Cooling Degree Days 0 0  
Month to date cooling degree days 0 0  
Year to date cooling degree days 0 0  
Moisture  
Dew Point 20 °F    
Average Humidity 39    
Maximum Humidity 59    
Minimum Humidity 19    
Precipitation  
Precipitation 0.00 in 0.06 in 0.41 in (1948)
Month to date precipitation 0.71 1.49  
Year to date precipitation 2.36 3.75  
Sea Level Pressure  
Sea Level Pressure 29.89 in    
Wind  
Wind Speed 19 mph (West)    
Max Wind Speed 39 mph    
Max Gust Speed 48 mph    
Visibility 10 miles    
Events      
T = Trace of Precipitation, MM = Missing Value Source: NWS Daily Summary

Daily Weather History Graph

Daily Weather History Graph

Search for Another Location

Airport or City:

Trip Planner

Search our weather history database for the weather conditions in past years. The results will help you decide how hot, cold, wet, or windy it might be!

Date:

Astronomy

May. 28, 2012 Rise Set
Actual Time 5:33 AM MDT 8:26 PM MDT
Civil Twilight 5:00 AM MDT 8:59 PM MDT
Nautical Twilight 4:19 AM MDT 9:41 PM MDT
Astronomical Twilight 3:31 AM MDT 10:29 PM MDT
Moon 12:50 PM MDT (5/28) 1:02 AM MDT (5/28)
Length of Visible Light 15h 59m
Length of Day
14h 53m
Waxing Crescent, 49% of the Moon is Illuminated
May 28
Waxing Crescent
May 28
First Quarter
Jun 4
Full
Jun 11
Last Quarter
Jun 19
New

Hourly Weather History & Observations

Time (MDT) Temp. Windchill Dew Point Humidity Pressure Visibility Wind Dir Wind Speed Gust Speed Precip Events Conditions
12:53 AM 37.9 °F 28.5 °F 24.1 °F 57% 29.82 in 10.0 mi SW 17.3 mph 25.3 mph N/A   Clear
1:53 AM 37.0 °F 29.8 °F 23.0 °F 57% 29.86 in 10.0 mi SW 10.4 mph - N/A   Clear
2:53 AM 39.9 °F 32.9 °F 21.0 °F 47% 29.84 in 10.0 mi WSW 11.5 mph 18.4 mph N/A   Mostly Cloudy
3:53 AM 39.0 °F 27.8 °F 19.9 °F 46% 29.82 in 10.0 mi WSW 26.5 mph 34.5 mph N/A   Clear
4:53 AM 37.9 °F 27.9 °F 21.0 °F 51% 29.86 in 10.0 mi WSW 19.6 mph - N/A   Clear
5:53 AM 37.9 °F 27.6 °F 21.9 °F 53% 29.88 in 10.0 mi WSW 20.7 mph 26.5 mph N/A   Clear
6:53 AM 42.1 °F 35.7 °F 24.1 °F 49% 29.90 in 10.0 mi South 11.5 mph 19.6 mph N/A   Mostly Cloudy
7:53 AM 45.0 °F 37.4 °F 24.1 °F 44% 29.91 in 10.0 mi West 18.4 mph 24.2 mph N/A   Mostly Cloudy
8:53 AM 46.9 °F - 23.0 °F 39% 29.91 in 10.0 mi West 26.5 mph 36.8 mph N/A   Partly Cloudy
9:53 AM 50.0 °F - 23.0 °F 35% 29.91 in 10.0 mi West 33.4 mph 43.7 mph N/A   Partly Cloudy
10:53 AM 53.1 °F - 21.9 °F 30% 29.89 in 10.0 mi West 28.8 mph 43.7 mph N/A   Clear
11:53 AM 55.0 °F - 19.9 °F 25% 29.88 in 10.0 mi WSW 28.8 mph 39.1 mph N/A   Clear
12:53 PM 57.9 °F - 19.9 °F 23% 29.88 in 10.0 mi West 26.5 mph 36.8 mph N/A   Partly Cloudy
1:53 PM 59.0 °F - 18.0 °F 20% 29.88 in 10.0 mi West 19.6 mph 36.8 mph N/A   Clear
2:53 PM 60.1 °F - 18.0 °F 20% 29.86 in 10.0 mi West 18.4 mph 32.2 mph N/A   Scattered Clouds
3:53 PM 57.9 °F - 19.0 °F 22% 29.87 in 10.0 mi West 19.6 mph 28.8 mph N/A   Mostly Cloudy
4:53 PM 59.0 °F - 18.0 °F 20% 29.88 in 10.0 mi WNW 19.6 mph 28.8 mph N/A   Partly Cloudy
5:53 PM 55.9 °F - 18.0 °F 23% 29.91 in 10.0 mi West 19.6 mph 32.2 mph N/A   Clear
6:53 PM 57.0 °F - 17.1 °F 21% 29.90 in 10.0 mi West 17.3 mph 25.3 mph N/A   Scattered Clouds
7:53 PM 55.0 °F - 17.1 °F 23% 29.91 in 10.0 mi West 20.7 mph 27.6 mph N/A   Partly Cloudy
8:53 PM 52.0 °F - 17.1 °F 25% 29.93 in 10.0 mi West 13.8 mph - N/A   Partly Cloudy
9:53 PM 48.0 °F - 19.0 °F 32% 29.95 in 10.0 mi West 9.2 mph - N/A   Clear
10:53 PM 46.9 °F - 19.9 °F 34% 29.95 in 10.0 mi WNW 13.8 mph - N/A   Clear
11:53 PM 44.1 °F 37.7 °F 19.9 °F 38% 29.96 in 10.0 mi WNW 12.7 mph - N/A   Clear